^^
Datos históricos de la estación: Murcia-Puente Tocinos
Diario Informe para Octubre 22, 2019 Unidades:  Métrico    Inglés   Ambas
Diario Semanal Mensual Anual Configurable
  Máximo: Mínimo: Media:
Temperatura: 16.7 °C 12.8 °C 13.8 °C
Punto de rocio: 13.1 °C 10.4 °C 11.8 °C
Humedad: 95% 71% 88%
Velocidad viento: 14.5km/h 0.0km/h 8km/h
Racha viento: 27.4km/h - -
Viento- - SSW
Presión: 1015.2 hPa 1006.0 hPa -
Precipitación: 22.3 mm    
Historical Graphs
 
 
Tabla de datos para Octubre 22, 2019
Hora Temperatura Punto de rocio Presión Viento Velocidad viento Racha viento Humedad Intensidad lluvia(por hora) Nubes
00:00 16.7 °C 11.4 °C 1015.2 hPa ESE 3.2 km/h   71% 0.0 mm CLR
00:05 16.7 °C 11.6 °C 1015.2 hPa Calm   6.4 km/h 72% 0.0 mm FEW
00:10 16.6 °C 11.6 °C 1014.8 hPa Calm   8.0 km/h 72% 0.0 mm FEW
00:15 16.5 °C 11.4 °C 1014.8 hPa ENE 3.2 km/h   72% 0.0 mm FEW
00:20 16.4 °C 11.6 °C 1014.8 hPa ENE 3.2 km/h   73% 0.0 mm FEW
00:25 16.4 °C 11.6 °C 1014.7 hPa Calm   3.2 km/h 73% 0.0 mm FEW
00:30 16.4 °C 11.7 °C 1014.7 hPa Calm   8.0 km/h 74% 0.0 mm FEW
00:35 16.3 °C 11.8 °C 1014.7 hPa NNW 3.2 km/h 8.0 km/h 75% 0.0 mm FEW
00:40 16.1 °C 11.9 °C 1014.2 hPa North 3.2 km/h 9.7 km/h 76% 0.0 mm FEW
00:45 15.9 °C 11.7 °C 1014.2 hPa NNE 3.2 km/h 8.0 km/h 76% 0.0 mm FEW
00:50 15.8 °C 11.6 °C 1014.2 hPa NNE 3.2 km/h 8.0 km/h 76% 0.0 mm SCT
00:55 15.8 °C 11.6 °C 1013.9 hPa NNE 3.2 km/h 8.0 km/h 76% 0.0 mm SCT
01:00 15.8 °C 11.6 °C 1013.9 hPa NNE 3.2 km/h 6.4 km/h 76% 0.0 mm CLR
01:05 15.8 °C 11.6 °C 1013.9 hPa NNE 3.2 km/h   76% 0.0 mm SCT
01:10 15.7 °C 11.3 °C 1013.8 hPa NNE 3.2 km/h 4.8 km/h 75% 0.0 mm SCT
01:15 15.8 °C 11.4 °C 1013.8 hPa Calm   8.0 km/h 75% 0.0 mm SCT
01:20 15.9 °C 11.7 °C 1013.8 hPa Calm   8.0 km/h 76% 0.0 mm CLR
01:25 15.9 °C 11.5 °C 1014.0 hPa SSE 4.8 km/h 9.7 km/h 75% 0.0 mm CLR
01:30 15.9 °C 11.4 °C 1014.0 hPa SSE 4.8 km/h 11.3 km/h 75% 0.0 mm CLR
01:35 15.9 °C 11.7 °C 1014.0 hPa SSE 8.0 km/h 9.7 km/h 76% 0.0 mm CLR
01:40 15.9 °C 11.3 °C 1014.1 hPa SSE 8.0 km/h 9.7 km/h 74% 0.0 mm CLR
01:45 15.9 °C 11.3 °C 1014.1 hPa SSE 8.0 km/h 9.7 km/h 74% 0.0 mm CLR
01:50 15.9 °C 11.1 °C 1014.1 hPa SSE 8.0 km/h 9.7 km/h 73% 0.0 mm CLR
01:55 15.9 °C 11.1 °C 1014.1 hPa South 8.0 km/h 9.7 km/h 73% 0.0 mm CLR
02:00 15.9 °C 11.1 °C 1014.1 hPa SSW 8.0 km/h 8.0 km/h 73% 0.0 mm CLR
02:05 15.9 °C 11.3 °C 1014.1 hPa SW 4.8 km/h 8.0 km/h 74% 0.0 mm CLR
02:10 15.9 °C 11.3 °C 1013.9 hPa SW 4.8 km/h 8.0 km/h 74% 0.0 mm CLR
02:15 15.9 °C 11.4 °C 1013.9 hPa WSW 3.2 km/h 8.0 km/h 75% 0.0 mm CLR
02:20 15.8 °C 11.4 °C 1013.9 hPa WSW 3.2 km/h 8.0 km/h 75% 0.0 mm FEW
02:25 15.7 °C 11.7 °C 1013.6 hPa WSW 4.7 km/h 3.7 km/h 77% 0.0 mm FEW
02:30 15.6 °C 11.8 °C 1013.6 hPa West 3.2 km/h 6.4 km/h 78% 0.0 mm FEW
02:35 15.4 °C 11.6 °C 1013.6 hPa NE 2.9 km/h 7.4 km/h 78% 0.0 mm FEW
02:40 15.2 °C 11.6 °C 1012.5 hPa NNE 3.2 km/h 9.7 km/h 79% 0.0 mm RA
02:45 15.2 °C 11.9 °C 1012.5 hPa ENE 4.8 km/h 9.7 km/h 81% 0.0 mm RA
02:50 15.1 °C 12.1 °C 1012.5 hPa East 4.8 km/h 9.7 km/h 82% 0.0 mm
02:55 14.9 °C 12.1 °C 1012.3 hPa ESE 4.8 km/h 8.0 km/h 83% 0.0 mm
03:00 14.9 °C 12.1 °C 1012.3 hPa SSE 4.8 km/h 11.3 km/h 83% 0.0 mm
03:05 14.8 °C 12.1 °C 1012.3 hPa SW 8.0 km/h 12.9 km/h 84% 0.0 mm
03:10 14.8 °C 12.1 °C 1013.2 hPa West 6.4 km/h 11.1 km/h 84% 0.3 mm CLR
03:15 14.8 °C 12.1 °C 1013.2 hPa WSW 8.0 km/h 11.3 km/h 84% 0.0 mm
03:20 14.8 °C 11.9 °C 1013.2 hPa WSW 8.0 km/h 14.5 km/h 83% 0.0 mm
03:25 14.7 °C 12.0 °C 1012.7 hPa WSW 8.0 km/h 12.9 km/h 84% 0.2 mm RA
03:30 14.6 °C 12.1 °C 1012.7 hPa WSW 8.0 km/h 11.3 km/h 85% 0.7 mm RA
03:35 14.6 °C 12.3 °C 1012.7 hPa WSW 8.0 km/h 14.5 km/h 86% 0.5 mm RA
03:40 14.6 °C 12.3 °C 1012.2 hPa NW 8.0 km/h 11.3 km/h 86% 0.3 mm RA
03:45 14.5 °C 12.3 °C 1012.2 hPa North 4.8 km/h 4.8 km/h 87% 0.3 mm RA
03:50 14.4 °C 12.3 °C 1012.2 hPa NNE 4.8 km/h 8.0 km/h 87% 0.0 mm
03:55 14.5 °C 12.6 °C 1012.4 hPa ENE 3.2 km/h 8.0 km/h 88% 0.0 mm
04:00 14.5 °C 12.6 °C 1012.4 hPa East 3.2 km/h 9.7 km/h 88% 0.0 mm
04:05 14.4 °C 12.6 °C 1012.4 hPa ESE 4.8 km/h 14.5 km/h 89% 0.0 mm
04:10 14.3 °C 12.5 °C 1011.8 hPa ESE 4.8 km/h 9.7 km/h 89% 0.0 mm RA
04:15 14.2 °C 12.6 °C 1011.8 hPa ESE 8.0 km/h 9.7 km/h 90% 0.5 mm RA
04:20 14.2 °C 12.6 °C 1011.8 hPa ESE 8.0 km/h 8.0 km/h 90% 0.3 mm RA
04:25 14.2 °C 12.7 °C 1011.9 hPa ESE 4.8 km/h 8.0 km/h 91% 0.0 mm RA
04:30 14.2 °C 12.8 °C 1011.9 hPa East 4.8 km/h 8.0 km/h 91% 0.0 mm RA
04:35 14.2 °C 12.8 °C 1011.9 hPa North 3.2 km/h 8.0 km/h 91% 0.2 mm RA
04:40 14.2 °C 12.8 °C 1011.6 hPa WNW 3.2 km/h 11.3 km/h 91% 0.2 mm RA
04:45 14.2 °C 12.9 °C 1011.6 hPa WNW 3.2 km/h 8.0 km/h 92% 0.3 mm RA
04:50 14.2 °C 12.9 °C 1011.6 hPa West 3.2 km/h 8.0 km/h 92% 0.0 mm RA
04:55 14.2 °C 12.9 °C 1011.7 hPa WSW 3.2 km/h 6.4 km/h 92% 0.0 mm
05:00 14.1 °C 12.8 °C 1011.7 hPa SSW 3.2 km/h 8.0 km/h 92% 0.2 mm RA
05:05 14.2 °C 12.9 °C 1011.7 hPa SE 3.2 km/h 9.7 km/h 92% 0.0 mm RA
05:10 14.2 °C 12.9 °C 1011.5 hPa ESE 3.2 km/h 9.7 km/h 92% 0.3 mm RA
05:15 14.2 °C 12.9 °C 1011.5 hPa WSW 3.2 km/h 9.7 km/h 92% 0.0 mm RA
05:20 14.1 °C 12.8 °C 1011.5 hPa West 3.2 km/h 9.7 km/h 92% 0.0 mm RA
05:25 14.1 °C 12.8 °C 1011.0 hPa WNW 4.8 km/h 8.0 km/h 92% 0.0 mm RA
05:30 14.0 °C 12.9 °C 1011.0 hPa WNW 4.8 km/h 8.0 km/h 93% 0.0 mm RA
05:35 13.9 °C 12.8 °C 1011.0 hPa NNW 3.2 km/h 8.0 km/h 93% 0.0 mm RA
05:40 13.9 °C 12.8 °C 1010.6 hPa NE 3.2 km/h 8.0 km/h 93% 0.0 mm RA
05:45 13.8 °C 12.7 °C 1010.6 hPa NE 4.8 km/h 9.7 km/h 93% 0.3 mm RA
05:50 13.9 °C 12.8 °C 1010.6 hPa NE 4.8 km/h 6.4 km/h 93% 0.2 mm RA
05:55 13.9 °C 12.8 °C 1010.7 hPa ENE 3.2 km/h 8.0 km/h 93% 0.2 mm RA
06:00 13.9 °C 12.8 °C 1010.7 hPa East 3.2 km/h 8.0 km/h 93% 0.0 mm
06:05 13.9 °C 12.8 °C 1010.7 hPa SSE 3.2 km/h 12.9 km/h 93% 0.0 mm
06:10 13.8 °C 12.8 °C 1010.9 hPa SSW 3.2 km/h 14.5 km/h 94% 0.3 mm RA
06:15 13.9 °C 12.9 °C 1010.9 hPa SSW 9.7 km/h 11.3 km/h 94% 0.5 mm RA
06:20 14.0 °C 13.1 °C 1010.9 hPa SSW 9.7 km/h 11.3 km/h 94% 0.5 mm RA
06:25 14.0 °C 13.1 °C 1011.2 hPa SSW 8.0 km/h 12.9 km/h 94% 0.6 mm RA
06:30 13.9 °C 12.9 °C 1011.2 hPa SSW 8.0 km/h 12.9 km/h 94% 0.5 mm RA
06:35 13.9 °C 12.9 °C 1011.2 hPa SSW 8.0 km/h 14.5 km/h 94% 0.7 mm RA
06:40 13.8 °C 12.8 °C 1011.2 hPa SW 8.0 km/h 16.1 km/h 94% 0.8 mm RA
06:45 13.8 °C 12.8 °C 1011.2 hPa SW 9.7 km/h 11.3 km/h 94% 0.3 mm RA
06:50 13.7 °C 12.8 °C 1011.2 hPa SSW 8.7 km/h 7.4 km/h 94% 2.6 mm RA
06:55 13.7 °C 12.8 °C 1011.5 hPa SSW 4.8 km/h 12.9 km/h 94% 0.7 mm RA
07:00 13.6 °C 12.7 °C 1011.5 hPa SSW 4.8 km/h 12.9 km/h 94% 0.3 mm RA
07:05 13.6 °C 12.7 °C 1011.5 hPa SW 8.0 km/h 11.3 km/h 94% 0.8 mm RA
07:10 13.4 °C 12.4 °C 1010.9 hPa WSW 8.0 km/h 14.5 km/h 94% 0.7 mm RA
07:15 13.4 °C 12.4 °C 1010.9 hPa WSW 8.0 km/h 9.7 km/h 94% 0.0 mm RA
07:20 13.4 °C 12.4 °C 1010.9 hPa SW 8.0 km/h 8.0 km/h 94% 0.0 mm RA
07:25 13.3 °C 12.3 °C 1010.7 hPa West 4.7 km/h 7.6 km/h 94% 3.8 mm RA
07:30 13.3 °C 12.3 °C 1010.7 hPa West 3.2 km/h 9.7 km/h 94% 0.0 mm RA
07:35 13.2 °C 12.3 °C 1010.7 hPa WSW 4.8 km/h 11.3 km/h 94% 0.0 mm RA
07:40 13.2 °C 12.3 °C 1010.1 hPa WSW 4.8 km/h 11.3 km/h 94% 0.3 mm RA
07:45 13.2 °C 12.3 °C 1010.1 hPa SW 8.0 km/h 12.9 km/h 94% 0.0 mm
07:50 13.1 °C 12.2 °C 1010.1 hPa SW 8.0 km/h 12.9 km/h 94% 0.2 mm RA
07:55 13.1 °C 12.2 °C 1010.5 hPa SW 8.0 km/h 12.9 km/h 94% 0.2 mm RA
08:00 13.1 °C 12.2 °C 1010.5 hPa WSW 8.0 km/h 14.5 km/h 94% 0.0 mm
08:05 13.1 °C 12.2 °C 1010.5 hPa WSW 8.0 km/h 14.5 km/h 94% 0.3 mm RA
08:10 13.1 °C 12.2 °C 1010.1 hPa WSW 8.0 km/h 16.1 km/h 94% 0.3 mm RA
08:15 13.2 °C 12.3 °C 1010.1 hPa WSW 9.7 km/h 14.5 km/h 94% 0.0 mm FEW
08:20 13.2 °C 12.3 °C 1010.1 hPa SW 8.7 km/h 9.3 km/h 94% 1.3 mm SCT
08:25 13.2 °C 12.3 °C 1010.4 hPa SW 9.7 km/h 16.1 km/h 94% 0.5 mm RA
08:30 13.2 °C 12.3 °C 1010.4 hPa SW 9.7 km/h 14.5 km/h 94% 0.7 mm RA
08:35 13.2 °C 12.3 °C 1010.4 hPa SW 9.7 km/h 14.5 km/h 94% 0.2 mm RA
08:40 13.2 °C 12.3 °C 1010.5 hPa SW 9.7 km/h 11.3 km/h 94% 0.3 mm RA
08:45 13.2 °C 12.3 °C 1010.5 hPa SW 9.7 km/h 16.1 km/h 94% 0.0 mm RA
08:50 13.2 °C 12.3 °C 1010.5 hPa WSW 9.7 km/h 12.9 km/h 94% 0.5 mm RA
08:55 13.2 °C 12.4 °C 1010.2 hPa WSW 8.0 km/h 11.3 km/h 95% 0.0 mm RA
09:00 13.2 °C 12.4 °C 1010.2 hPa WSW 8.0 km/h 12.9 km/h 95% 0.0 mm -RA
09:05 13.3 °C 12.4 °C 1010.2 hPa WSW 4.8 km/h 19.3 km/h 95% 0.0 mm RA
09:10 13.2 °C 12.4 °C 1010.0 hPa West 4.8 km/h 19.3 km/h 95% 0.2 mm RA
09:15 13.2 °C 12.4 °C 1010.0 hPa West 9.7 km/h 19.3 km/h 95% 0.3 mm RA
09:20 13.2 °C 12.4 °C 1010.0 hPa WSW 9.7 km/h 20.9 km/h 95% 0.5 mm RA
09:25 13.2 °C 12.4 °C 1010.1 hPa WSW 11.3 km/h 25.7 km/h 95% 0.2 mm RA
09:30 13.2 °C 12.4 °C 1010.1 hPa WSW 11.3 km/h 25.7 km/h 95% 0.0 mm SCT
09:35 13.2 °C 12.4 °C 1010.1 hPa WSW 14.5 km/h 24.1 km/h 95% 0.3 mm RA
09:40 13.2 °C 12.4 °C 1010.2 hPa SW 14.5 km/h 24.1 km/h 95% 0.3 mm RA
09:45 13.2 °C 12.4 °C 1010.2 hPa SW 14.5 km/h 24.1 km/h 95% 0.2 mm RA
09:50 13.2 °C 12.4 °C 1010.2 hPa SW 14.5 km/h 24.1 km/h 95% 0.5 mm RA
09:55 13.2 °C 12.4 °C 1010.9 hPa SSW 12.9 km/h 20.9 km/h 95% 0.5 mm RA
10:00 13.2 °C 12.4 °C 1010.9 hPa SSW 12.9 km/h 25.7 km/h 95% 0.3 mm RA
10:05 13.2 °C 12.4 °C 1010.9 hPa SSW 12.9 km/h 20.9 km/h 95% 1.1 mm RA
10:10 13.2 °C 12.4 °C 1010.9 hPa SW 12.9 km/h 19.3 km/h 95% 0.5 mm RA
10:15 13.2 °C 12.3 °C 1010.9 hPa SW 9.7 km/h 19.3 km/h 94% 0.2 mm RA
10:20 13.2 °C 12.3 °C 1010.9 hPa SW 9.7 km/h 17.7 km/h 94% 0.7 mm RA
10:25 13.2 °C 12.3 °C 1010.9 hPa SW 11.3 km/h 16.1 km/h 94% 0.3 mm RA
10:30 13.2 °C 12.3 °C 1010.9 hPa SW 11.3 km/h 16.1 km/h 94% 0.0 mm RA
10:35 13.2 °C 12.3 °C 1010.9 hPa SW 9.7 km/h 16.1 km/h 94% 0.0 mm RA
10:40 13.2 °C 12.3 °C 1010.6 hPa SSW 8.7 km/h 18.5 km/h 94% 3.1 mm RA
10:45 13.2 °C 12.3 °C 1010.6 hPa SW 9.7 km/h 19.3 km/h 94% 0.2 mm RA
10:50 13.2 °C 12.3 °C 1010.6 hPa SW 9.7 km/h 16.1 km/h 94% 0.2 mm RA
10:55 13.2 °C 12.1 °C 1010.2 hPa SW 9.7 km/h 19.3 km/h 93% 0.3 mm RA
11:00 13.3 °C 12.2 °C 1010.2 hPa SW 9.7 km/h 24.1 km/h 93% 0.0 mm RA
11:05 13.2 °C 12.1 °C 1010.2 hPa WSW 13.0 km/h 20.4 km/h 93% 2.0 mm RA
11:10 13.2 °C 12.1 °C 1010.2 hPa SW 12.9 km/h 24.1 km/h 93% 0.0 mm RA
11:15 13.3 °C 12.2 °C 1010.2 hPa SW 14.5 km/h 25.7 km/h 93% 0.0 mm BKN
11:20 13.3 °C 12.2 °C 1010.2 hPa SW 14.5 km/h 22.5 km/h 93% 0.0 mm BKN
11:25 13.2 °C 12.1 °C 1010.4 hPa SW 12.9 km/h 25.7 km/h 93% 0.0 mm BKN
11:30 13.3 °C 12.2 °C 1010.4 hPa SW 12.9 km/h 25.7 km/h 93% 0.3 mm RA
11:35 13.2 °C 12.1 °C 1010.4 hPa SW 14.5 km/h 27.4 km/h 93% 0.3 mm RA
11:40 13.2 °C 12.1 °C 1010.4 hPa WSW 14.0 km/h 17.2 km/h 93% 1.0 mm BKN
11:45 13.2 °C 12.1 °C 1010.4 hPa SW 12.9 km/h 24.1 km/h 93% 0.0 mm RA
11:50 13.2 °C 12.1 °C 1010.4 hPa SW 12.9 km/h 24.1 km/h 93% 0.0 mm -RA
11:55 13.2 °C 12.1 °C 1010.2 hPa SW 12.9 km/h 24.1 km/h 93% 0.2 mm -RA
12:00 13.2 °C 12.1 °C 1010.2 hPa WSW 12.9 km/h 22.5 km/h 93% 0.3 mm RA
12:05 13.2 °C 12.1 °C 1010.2 hPa SW 14.5 km/h 20.9 km/h 93% 0.3 mm -RA
12:10 13.2 °C 12.1 °C 1010.0 hPa SW 14.5 km/h 19.3 km/h 93% 0.0 mm -RA
12:15 13.2 °C 11.9 °C 1010.0 hPa SW 11.3 km/h 16.1 km/h 92% 0.3 mm -RA
12:20 13.3 °C 12.0 °C 1010.0 hPa SW 11.3 km/h 16.1 km/h 92% 0.3 mm -RA
12:25 13.3 °C 12.0 °C 1010.5 hPa SW 9.7 km/h 19.3 km/h 92% 0.0 mm BKN
12:30 13.4 °C 11.9 °C 1010.5 hPa SW 9.7 km/h 20.9 km/h 91% 0.0 mm -RA
12:35 13.4 °C 11.9 °C 1010.5 hPa SW 10.3 km/h 16.7 km/h 91% 1.5 mm -RA
12:40 13.3 °C 11.9 °C 1010.2 hPa SW 11.3 km/h 20.9 km/h 91% 0.0 mm -RA
12:45 13.3 °C 11.7 °C 1010.2 hPa SW 11.3 km/h 20.9 km/h 90% 0.0 mm BKN
12:50 13.3 °C 11.7 °C 1010.2 hPa WSW 11.3 km/h 16.1 km/h 90% 0.0 mm -RA
12:55 13.3 °C 11.5 °C 1010.1 hPa WSW 11.3 km/h 20.9 km/h 89% 0.0 mm BKN
13:00 13.3 °C 11.5 °C 1010.1 hPa WSW 11.3 km/h 19.3 km/h 89% 0.0 mm BKN
13:05 13.3 °C 11.5 °C 1010.1 hPa SW 11.3 km/h 16.1 km/h 89% 0.0 mm -RA
13:10 13.3 °C 11.5 °C 1010.0 hPa SW 11.3 km/h 19.3 km/h 89% 0.3 mm -RA
13:15 13.3 °C 11.5 °C 1010.0 hPa SW 11.3 km/h 17.7 km/h 89% 0.0 mm BKN
13:20 13.2 °C 11.4 °C 1010.0 hPa SW 11.3 km/h 14.5 km/h 89% 0.0 mm SCT
13:25 13.2 °C 11.6 °C 1009.9 hPa SW 9.7 km/h 12.9 km/h 90% 0.0 mm SCT
13:30 13.3 °C 11.7 °C 1009.9 hPa SW 9.7 km/h 14.5 km/h 90% 0.0 mm SCT
13:35 13.2 °C 11.6 °C 1009.9 hPa SW 8.0 km/h 11.3 km/h 90% 0.2 mm RA
13:40 13.2 °C 11.6 °C 1009.7 hPa SW 8.0 km/h 12.9 km/h 90% 0.2 mm RA
13:45 13.2 °C 11.6 °C 1009.7 hPa SW 8.0 km/h 11.3 km/h 90% 0.0 mm OVC
13:50 13.3 °C 11.7 °C 1009.7 hPa SW 8.0 km/h 11.3 km/h 90% 0.0 mm SCT
13:55 13.2 °C 11.4 °C 1009.5 hPa WSW 8.0 km/h 12.9 km/h 89% 0.0 mm SCT
14:00 13.1 °C 11.3 °C 1009.5 hPa SW 8.0 km/h 11.3 km/h 89% 0.0 mm RA
14:05 13.1 °C 11.3 °C 1009.5 hPa SW 8.0 km/h 11.3 km/h 89% 0.3 mm RA
14:10 13.1 °C 11.3 °C 1009.3 hPa SW 8.0 km/h 12.9 km/h 89% 0.0 mm SCT
14:15 12.9 °C 10.9 °C 1009.3 hPa SW 8.0 km/h 14.5 km/h 88% 0.5 mm RA
14:20 12.9 °C 10.9 °C 1009.3 hPa SW 8.0 km/h 14.5 km/h 88% 0.5 mm -RA
14:25 12.8 °C 10.8 °C 1009.1 hPa SW 9.7 km/h 14.5 km/h 88% 0.2 mm -RA
14:30 12.8 °C 11.1 °C 1009.1 hPa SW 9.7 km/h 12.9 km/h 89% 0.2 mm -RA
14:35 12.8 °C 11.1 °C 1009.1 hPa SSW 8.0 km/h 16.1 km/h 89% 0.3 mm -RA
14:40 12.8 °C 11.1 °C 1008.9 hPa SW 8.0 km/h 12.9 km/h 89% 0.0 mm -RA
14:45 12.8 °C 11.1 °C 1008.9 hPa SW 8.0 km/h 16.1 km/h 89% 0.0 mm -RA
14:50 12.8 °C 11.1 °C 1008.9 hPa WSW 8.4 km/h 11.1 km/h 89% 1.8 mm RA
14:55 12.9 °C 11.3 °C 1008.2 hPa WSW 9.7 km/h 14.5 km/h 90% 0.0 mm RA
15:00 13.1 °C 11.5 °C 1008.2 hPa SW 9.7 km/h 11.3 km/h 90% 0.0 mm -RA
15:05 13.1 °C 11.7 °C 1008.2 hPa SW 8.0 km/h 9.7 km/h 91% 0.0 mm -RA
15:10 13.1 °C 11.7 °C 1007.7 hPa SW 8.0 km/h 14.5 km/h 91% 0.0 mm SCT
15:15 13.2 °C 11.8 °C 1007.7 hPa SW 8.0 km/h 14.5 km/h 91% 0.0 mm -RA
15:20 12.9 °C 11.3 °C 1007.7 hPa SW 8.0 km/h 17.7 km/h 90% 0.0 mm SCT
15:25 13.1 °C 11.5 °C 1007.5 hPa West 10.3 km/h 9.5 km/h 90% 0.8 mm SCT
15:30 13.1 °C 11.5 °C 1007.5 hPa WSW 11.3 km/h 14.5 km/h 90% 0.0 mm SCT
15:35 13.1 °C 11.5 °C 1007.5 hPa WSW 9.7 km/h 16.1 km/h 90% 0.0 mm SCT
15:40 13.1 °C 11.3 °C 1006.9 hPa WSW 9.7 km/h 12.9 km/h 89% 0.0 mm SCT
15:45 13.2 °C 11.6 °C 1006.9 hPa SW 9.7 km/h 14.5 km/h 90% 0.0 mm SCT
15:50 13.2 °C 11.6 °C 1006.9 hPa SW 9.7 km/h 22.5 km/h 90% 0.0 mm SCT
15:55 13.2 °C 11.4 °C 1007.3 hPa SW 11.3 km/h 20.9 km/h 89% 0.0 mm SCT
16:00 13.2 °C 11.3 °C 1007.3 hPa SSW 11.3 km/h 20.9 km/h 88% 0.0 mm SCT
16:05 13.3 °C 11.3 °C 1007.3 hPa SSW 11.3 km/h 22.5 km/h 88% 0.0 mm SCT
16:10 13.3 °C 11.3 °C 1007.4 hPa SSW 11.3 km/h 24.1 km/h 88% 0.0 mm SCT
16:15 13.3 °C 11.4 °C 1007.4 hPa SSW 12.9 km/h 20.9 km/h 88% 0.0 mm SCT
16:20 13.3 °C 11.3 °C 1007.4 hPa SSW 12.9 km/h 19.3 km/h 88% 0.0 mm SCT
16:25 13.3 °C 11.3 °C 1007.2 hPa SW 12.9 km/h 19.3 km/h 88% 0.3 mm RA
16:30 13.3 °C 11.3 °C 1007.2 hPa WSW 12.9 km/h 16.1 km/h 88% 0.3 mm RA
16:35 13.3 °C 11.3 °C 1007.2 hPa WSW 9.7 km/h 20.9 km/h 88% 0.0 mm BKN
16:40 13.3 °C 11.6 °C 1007.3 hPa SSW 9.7 km/h 16.1 km/h 89% 0.0 mm SCT
16:45 13.4 °C 11.6 °C 1007.3 hPa SSW 11.3 km/h 14.5 km/h 89% 0.0 mm SCT
16:50 13.3 °C 11.4 °C 1007.3 hPa SW 11.3 km/h 16.1 km/h 88% 0.0 mm SCT
16:55 13.4 °C 11.4 °C 1006.9 hPa SW 8.0 km/h 12.9 km/h 88% 0.0 mm SCT
17:00 13.6 °C 11.6 °C 1006.9 hPa SSW 8.0 km/h 11.3 km/h 88% 0.0 mm BKN
17:05 13.6 °C 11.5 °C 1006.9 hPa SSW 8.0 km/h 14.5 km/h 87% 0.0 mm SCT
17:10 13.6 °C 11.3 °C 1007.1 hPa SSW 8.0 km/h 20.9 km/h 86% 0.0 mm SCT
17:15 13.7 °C 11.4 °C 1007.1 hPa SSW 11.3 km/h 19.3 km/h 86% 0.0 mm SCT
17:20 13.7 °C 11.4 °C 1007.1 hPa SSW 11.3 km/h 19.3 km/h 86% 0.0 mm SCT
17:25 13.8 °C 11.3 °C 1007.2 hPa SSW 11.3 km/h 16.1 km/h 85% 0.0 mm SCT
17:30 13.8 °C 11.5 °C 1007.2 hPa SSW 11.3 km/h 16.1 km/h 86% 0.0 mm SCT
17:35 13.8 °C 11.5 °C 1007.2 hPa SSW 9.7 km/h 11.3 km/h 86% 0.0 mm SCT
17:40 13.8 °C 11.3 °C 1006.9 hPa SSW 9.7 km/h 14.5 km/h 85% 0.0 mm SCT
17:45 13.8 °C 11.3 °C 1006.9 hPa SSW 8.0 km/h 16.1 km/h 85% 0.0 mm SCT
17:50 13.8 °C 11.3 °C 1006.9 hPa SSW 8.0 km/h 14.5 km/h 85% 0.0 mm FEW
17:55 13.8 °C 11.3 °C 1006.7 hPa SSW 8.0 km/h 12.9 km/h 85% 0.0 mm FEW
18:00 13.8 °C 11.4 °C 1006.7 hPa SSW 8.0 km/h 14.5 km/h 85% 0.0 mm SCT
18:05 13.9 °C 11.4 °C 1006.7 hPa SSW 9.7 km/h 16.1 km/h 85% 0.0 mm FEW
18:10 13.9 °C 11.2 °C 1006.8 hPa SSW 9.7 km/h 14.5 km/h 84% 0.0 mm FEW
18:15 13.9 °C 11.2 °C 1006.8 hPa SSW 9.5 km/h 11.1 km/h 84% 0.0 mm FEW
18:20 13.9 °C 11.2 °C 1006.8 hPa SSW 9.7 km/h 14.5 km/h 84% 0.0 mm SCT
18:25 13.9 °C 11.3 °C 1006.7 hPa SSW 9.7 km/h 14.5 km/h 84% 0.0 mm SCT
18:30 13.9 °C 11.4 °C 1006.7 hPa SSW 8.7 km/h 9.3 km/h 85% 0.0 mm SCT
18:35 13.9 °C 11.4 °C 1006.7 hPa South 8.0 km/h 14.5 km/h 85% 0.0 mm SCT
18:40 13.9 °C 11.2 °C 1006.8 hPa South 8.0 km/h 14.5 km/h 84% 0.0 mm SCT
18:45 13.9 °C 11.4 °C 1006.8 hPa South 8.0 km/h 11.3 km/h 85% 0.0 mm SCT
18:50 13.9 °C 11.4 °C 1006.8 hPa SSW 6.9 km/h 7.4 km/h 85% 0.0 mm SCT
18:55 13.9 °C 11.4 °C 1006.5 hPa SSW 4.8 km/h 8.0 km/h 85% 0.0 mm SCT
19:00 13.9 °C 11.2 °C 1006.5 hPa SW 4.8 km/h 8.0 km/h 84% 0.0 mm BKN
19:05 13.9 °C 11.2 °C 1006.5 hPa SSW 3.2 km/h 12.9 km/h 84% 0.0 mm SCT
19:10 13.9 °C 11.4 °C 1006.7 hPa South 3.2 km/h 11.3 km/h 85% 0.0 mm SCT
19:15 13.9 °C 11.4 °C 1006.7 hPa SSW 8.0 km/h 12.9 km/h 85% 0.0 mm SCT
19:20 13.8 °C 11.2 °C 1006.7 hPa SW 8.0 km/h 14.5 km/h 84% 0.0 mm SCT
19:25 13.8 °C 11.2 °C 1006.1 hPa SW 8.0 km/h 14.5 km/h 84% 0.0 mm SCT
19:30 13.8 °C 10.9 °C 1006.1 hPa SSW 8.0 km/h 19.3 km/h 83% 0.0 mm SCT
19:35 13.9 °C 11.1 °C 1006.1 hPa SSW 9.7 km/h 16.1 km/h 83% 0.0 mm SCT
19:40 13.9 °C 11.1 °C 1006.0 hPa SW 9.7 km/h 19.3 km/h 83% 0.0 mm SCT
19:45 13.9 °C 11.1 °C 1006.0 hPa SSW 9.7 km/h 16.1 km/h 83% 0.0 mm SCT
19:50 13.9 °C 11.1 °C 1006.0 hPa SSW 9.7 km/h 16.1 km/h 83% 0.0 mm SCT
19:55 13.9 °C 11.2 °C 1006.5 hPa South 11.3 km/h 16.1 km/h 84% 0.0 mm SCT
20:00 13.9 °C 11.2 °C 1006.5 hPa South 11.3 km/h 16.1 km/h 84% 0.0 mm SCT
20:05 13.9 °C 11.4 °C 1006.5 hPa South 9.7 km/h 12.9 km/h 85% 0.0 mm SCT
20:10 13.8 °C 11.3 °C 1006.1 hPa South 9.7 km/h 11.3 km/h 85% 0.0 mm SCT
20:15 13.7 °C 11.4 °C 1006.1 hPa South 8.0 km/h 9.7 km/h 86% 0.0 mm SCT
20:20 13.7 °C 11.4 °C 1006.1 hPa South 8.0 km/h 9.7 km/h 86% 0.0 mm SCT
20:25 13.7 °C 11.4 °C 1006.4 hPa South 8.0 km/h 12.9 km/h 86% 0.0 mm SCT
20:30 13.7 °C 11.6 °C 1006.4 hPa South 8.0 km/h 11.3 km/h 87% 0.0 mm SCT
20:35 13.7 °C 11.6 °C 1006.4 hPa SSW 8.0 km/h 14.5 km/h 87% 0.0 mm SCT
20:40 13.7 °C 11.4 °C 1006.2 hPa SW 8.0 km/h 14.5 km/h 86% 0.0 mm SCT
20:45 13.7 °C 11.2 °C 1006.2 hPa SW 8.0 km/h 17.7 km/h 85% 0.0 mm SCT
20:50 13.8 °C 11.3 °C 1006.2 hPa SW 8.0 km/h 17.7 km/h 85% 0.0 mm SCT
20:55 13.8 °C 11.2 °C 1006.4 hPa SSW 9.7 km/h 19.3 km/h 84% 0.0 mm SCT
21:00 13.8 °C 11.2 °C 1006.4 hPa SSW 9.7 km/h 20.9 km/h 84% 0.0 mm SCT
21:05 13.8 °C 11.1 °C 1006.4 hPa SSW 9.7 km/h 14.5 km/h 84% 0.0 mm SCT
21:10 13.7 °C 11.1 °C 1006.7 hPa South 9.7 km/h 16.1 km/h 84% 0.0 mm SCT
21:15 13.7 °C 10.9 °C 1006.7 hPa SSW 8.0 km/h 11.3 km/h 83% 0.0 mm SCT
21:20 13.7 °C 10.7 °C 1006.7 hPa SSW 8.0 km/h 11.3 km/h 82% 0.0 mm SCT
21:25 13.7 °C 10.4 °C 1006.8 hPa SSW 8.0 km/h 12.9 km/h 81% 0.0 mm SCT
21:30 13.7 °C 10.5 °C 1006.8 hPa SSW 8.0 km/h 9.7 km/h 81% 0.0 mm SCT
21:35 13.7 °C 10.5 °C 1006.8 hPa SW 4.8 km/h 6.4 km/h 81% 0.0 mm SCT
21:40 13.7 °C 10.4 °C 1006.9 hPa SW 4.8 km/h 9.7 km/h 81% 0.0 mm SCT
21:45 13.6 °C 10.4 °C 1006.9 hPa SW 4.8 km/h 14.5 km/h 81% 0.0 mm SCT
21:50 13.6 °C 10.4 °C 1006.9 hPa SW 4.8 km/h 12.9 km/h 81% 0.0 mm SCT
21:55 13.6 °C 10.6 °C 1007.0 hPa SW 8.0 km/h 11.3 km/h 82% 0.0 mm SCT
22:00 13.6 °C 10.7 °C 1007.0 hPa SW 8.0 km/h 14.5 km/h 83% 0.0 mm SCT
22:05 13.5 °C 10.8 °C 1007.0 hPa SW 8.0 km/h 11.3 km/h 84% 0.0 mm SCT
22:10 13.4 °C 10.9 °C 1006.9 hPa WSW 8.0 km/h 14.5 km/h 85% 0.0 mm SCT
22:15 13.4 °C 10.9 °C 1006.9 hPa WSW 8.0 km/h 14.5 km/h 85% 0.0 mm SCT
22:20 13.4 °C 11.1 °C 1006.9 hPa SW 8.0 km/h 9.7 km/h 86% 0.0 mm SCT
22:25 13.4 °C 11.3 °C 1006.9 hPa SSW 4.8 km/h 9.7 km/h 87% 0.0 mm SCT
22:30 13.4 °C 11.3 °C 1006.9 hPa SSW 4.8 km/h 12.9 km/h 87% 0.0 mm SCT
22:35 13.4 °C 11.3 °C 1006.9 hPa SSW 8.0 km/h 11.3 km/h 87% 0.0 mm SCT
22:40 13.4 °C 11.3 °C 1006.9 hPa South 8.0 km/h 11.3 km/h 87% 0.0 mm SCT
22:45 13.3 °C 11.2 °C 1006.9 hPa South 8.0 km/h 12.9 km/h 87% 0.0 mm SCT
22:50 13.3 °C 11.3 °C 1006.9 hPa South 8.0 km/h 11.3 km/h 88% 0.0 mm SCT
22:55 13.2 °C 11.3 °C 1007.1 hPa South 8.0 km/h 14.5 km/h 88% 0.0 mm SCT
23:00 13.2 °C 11.3 °C 1007.1 hPa South 8.0 km/h 14.5 km/h 88% 0.0 mm SCT
23:05 13.2 °C 11.3 °C 1007.1 hPa South 8.7 km/h 9.3 km/h 88% 0.0 mm SCT
23:10 13.2 °C 11.3 °C 1007.0 hPa SSW 9.7 km/h 12.9 km/h 88% 0.0 mm SCT
23:15 13.2 °C 11.3 °C 1007.0 hPa SSW 8.0 km/h 17.7 km/h 88% 0.0 mm SCT
23:20 13.3 °C 11.3 °C 1007.0 hPa SSW 8.0 km/h 19.3 km/h 88% 0.0 mm -RA
23:25 13.3 °C 11.3 °C 1007.0 hPa SSW 9.7 km/h 16.1 km/h 88% 0.0 mm SCT
23:30 13.3 °C 11.3 °C 1007.0 hPa SSW 9.7 km/h 14.5 km/h 88% 0.0 mm -RA
23:35 13.3 °C 11.3 °C 1007.0 hPa SSW 9.7 km/h 17.7 km/h 88% 0.0 mm SCT
23:40 13.3 °C 11.6 °C 1006.9 hPa SSW 9.7 km/h 17.7 km/h 89% 0.0 mm -RA
23:45 13.3 °C 11.6 °C 1006.9 hPa SSW 11.3 km/h 19.3 km/h 89% 0.0 mm SCT
23:50 13.3 °C 11.5 °C 1006.9 hPa SSW 11.3 km/h 19.3 km/h 89% 0.0 mm CLR
23:55 13.3 °C 11.6 °C 1007.0 hPa SSW 9.7 km/h 14.5 km/h 89% 0.0 mm CLR
Murcia-Puente Tocinos, España
Compliments of Weather Underground - 2.75 mb

La estación de MeteoMurcia.com, publica sus datos en los siguientes proyectos:

Weather Underground PWS IMURCIAP2 Meteoclimatic www.awekas.at

W3Counter
Web Analytics